Location: Hac?musa Deresi
(39.1694°N, 32.2508°E)
Time: 00:56:05
(UTC+00:00)

Cosmos 2242 Rocket - Pass Details

Date: 22 April 2026
Orbit: 612 x 645 km, 82.5° (Epoch: 9 May)

Event Time Altitude Azimuth Distance (km) Brightness Sun altitude
Rises 17:54:49 0° 349° (N) 2,917 7.7 -15.0°
Reaches altitude 10° 17:57:05 10° 347° (NNW) 2,001 6.8 -15.3°
Maximum altitude 18:01:28 67° 265° (W) 673 3.9 -16.1°
Drops below altitude 10° 18:05:47 10° 183° (S) 1,969 5.9 -16.8°
Enters shadow 18:05:51 10° 183° (S) 1,996 5.9 -16.8°
